Location: �terpigny
(49.8910°N, 2.9249°E)
Time: 09:35:15
(UTC+00:00)

Cosmos 389 Rocket - Pass Details

Date: 24 October 2021
Orbit: 439 x 468 km, 81.1° (Epoch: 30 November)

Event Time Altitude Azimuth Distance (km) Brightness Sun altitude
Rises 17:31:18 0° 208° (SSW) 2,421 6.7 -9.0°
Reaches altitude 10° 17:33:26 10° 217° (SW) 1,559 5.8 -9.3°
Maximum altitude 17:36:38 38° 287° (WNW) 695 4.0 -9.8°
Drops below altitude 10° 17:39:54 10° 358° (N) 1,585 5.1 -10.3°
Sets 17:42:05 0° 6° (N) 2,467 6.0 -10.7°
